KRAUCHNWS Weather Reports


Display with metric or nautical units.
time (UTC)temp
F
wind
direction
speed
MPH
gust
MPH
rain 1hr
in
rain 24hr
in
rain mn
in
humidity
%
barometer
mb
20260507050213 45 236 12.0 0.0 0.00 0.00 0.01 95 1011.6
20260507043211 45 274 10.0 0.0 0.00 0.00 0.00 94 1011.2
20260507040216 45 207 10.0 0.0 0.00 0.00 0.00 94 1011.1
20260507033211 45 225 8.0 0.0 0.00 0.00 0.00 94 1010.9
20260507030211 44 251 7.0 0.0 0.00 0.00 0.00 95 1010.8
20260507023211 44 244 7.0 0.0 0.00 0.00 0.00 95 1010.6
20260507020211 44 215 9.0 0.0 0.00 0.00 0.00 95 1010.5
20260507013212 43 202 13.0 0.0 0.00 0.00 0.00 95 1010.1
20260507010211 43 192 9.0 0.0 0.00 0.00 0.00 95 1010.3
20260507003209 44 165 11.0 0.0 0.00 0.00 0.00 95 1009.8
20260507000209 44 209 6.0 0.0 0.00 0.00 0.00 94 1009.7
20260506233209 44 190 6.0 0.0 0.00 0.00 0.00 93 1009.8
20260506230209 45 255 9.0 0.0 0.00 0.00 0.00 93 1009.7
20260506223209 45 229 7.0 0.0 0.00 0.00 0.00 94 1009.6
20260506213209 46 231 7.0 0.0 0.00 0.00 0.09 93 1009.4
20260506210210 46 229 8.0 0.0 0.00 0.00 0.09 93 1009.3
20260506203210 46 181 5.0 0.0 0.00 0.00 0.09 93 1009.1
20260506200210 46 255 12.0 0.0 0.00 0.00 0.09 93 1008.9
20260506193215 46 246 10.0 0.0 0.00 0.00 0.09 93 1008.7
20260506190211 47 188 12.0 0.0 0.00 0.00 0.09 92 1008.2
20260506183209 47 200 12.0 0.0 0.00 0.00 0.09 91 1007.9
20260506180216 48 239 12.0 0.0 0.00 0.00 0.09 91 1007.8
20260506173210 49 188 13.0 0.0 0.00 0.00 0.09 91 1007.3
20260506170215 49 240 7.0 0.0 0.00 0.00 0.09 93 1006.6
20260506163210 48 211 11.0 0.0 0.00 0.00 0.09 93 1006.9
20260506160210 48 232 12.0 0.0 0.00 0.00 0.09 93 1006.7
20260506153210 48 234 19.0 0.0 0.00 0.00 0.06 92 1006.7
20260506150210 49 213 28.0 0.0 0.00 0.00 0.03 91 1006.3
20260506143210 52 175 30.0 0.0 0.00 0.00 0.00 88 1005.4
20260506140210 57 248 14.0 0.0 0.00 0.00 0.00 72 1004.7
20260506133211 59 205 10.0 0.0 0.00 0.00 0.00 71 1004.6
20260506130211 59 255 6.0 0.0 0.00 0.00 0.00 68 1004.4
20260506123210 60 186 7.0 0.0 0.00 0.00 0.00 67 1004.6
20260506120210 60 316 5.0 0.0 0.00 0.00 0.00 68 1004.4
20260506113217 60 64 5.0 0.0 0.00 0.00 0.00 67 1004.6
20260506110210 58 135 4.0 0.0 0.00 0.00 0.00 70 1004.7
20260506100213 56 5 3.0 0.0 0.00 0.00 0.00 75 1004.9
20260506093211 56 148 2.0 0.0 0.00 0.00 0.00 77 1005.2
20260506090211 56 220 3.0 0.0 0.00 0.00 0.00 75 1005.1
20260506083211 55 158 4.0 0.0 0.00 0.00 0.00 86 1005.0
20260506080212 53 153 2.0 0.0 0.00 0.00 0.00 89 1005.1
20260506073211 51 166 3.0 0.0 0.00 0.00 0.00 94 1005.6
20260506070212 50 175 3.0 0.0 0.00 0.00 0.00 97 1005.6
20260506060210 47 273 2.0 0.0 0.00 0.00 0.00 97 1005.3